User: anonymous   Login
Location: Unspecified
(0.0000°N, 0.0000°E)
Time: 06:54:08
(UTC+00:00)
Language:

NOAA 9 - Orbit

View from above orbital plane
View from above orbital plane
View from above satellite
View from above satellite

Ground track
Ground track

The orbit data is extracted from the following two-line orbital elements,

1 15427U 84123A   22225.88848942  .00000054  00000-0  50524-4 0  9990
2 15427  99.0496 199.1866 0015046   6.8540  46.5935 14.16215076944740
Epoch (UTC): 13 August 2022 21:19:25
Eccentricity: 0.0015046
inclination: 99.0496°
perigee height: 827 km
apogee height: 849 km
right ascension of ascending node: 199.1866°
argument of perigee: 6.8540°
revolutions per day: 14.16215076
mean anomaly at epoch: 46.5935°
orbit number at epoch: 94474

The dashed part of the orbit path shows where the satellite is in the earth's shadow,  

DLR